Location: Unspecified
(0.0000°N, 0.0000°E)
Time: 13:57:37
(UTC+00:00)

Vela 4A - Pass Details

Date: 04 December 2021
Orbit: 58523 x 164212 km, 32.1° (Epoch: 09 January)

Event Time Altitude Azimuth Distance (km) Brightness Sun altitude
Rises 16:15:55 0° 86° (E) 151,284 ? 21.8°
Reaches altitude 10° 17:00:16 10° 85° (E) 151,470 ? 11.6°
Maximum altitude 22:38:47 80° 3° (N) 154,779 ? -61.6°
Drops below altitude 10° 04:19:30 10° 284° (WNW) 165,576 ? -21.0°
Sets 05:04:31 0° 284° (WNW) 167,248 ? -10.6°
